TimePDT,TemperatureF,Dew PointF,Humidity,Sea Level PressureIn,VisibilityMPH,Wind Direction,Wind SpeedMPH,Gust SpeedMPH,PrecipitationIn,Events,Conditions,WindDirDegrees,DateUTC
12:15 AM,42.8,42.8,100,29.98,8.0,NW,18.4,24.2,N/A,,Overcast,320,2012-10-23 07:15:00
12:35 AM,42.8,41.0,93,29.98,10.0,NW,16.1,23.0,N/A,,Overcast,320,2012-10-23 07:35:00
12:55 AM,42.8,41.0,93,29.99,10.0,WNW,15.0,19.6,N/A,,Overcast,300,2012-10-23 07:55:00
1:15 AM,42.8,41.0,93,30.00,10.0,WNW,13.8,-,N/A,,Overcast,300,2012-10-23 08:15:00
1:35 AM,42.8,41.0,93,30.01,10.0,WNW,13.8,20.7,N/A,,Overcast,290,2012-10-23 08:35:00
1:55 AM,42.8,41.0,93,30.00,10.0,WNW,13.8,18.4,N/A,,Overcast,300,2012-10-23 08:55:00
2:15 AM,42.8,39.2,87,29.99,10.0,NW,17.3,-,N/A,,Overcast,310,2012-10-23 09:15:00
2:35 AM,42.8,41.0,93,29.99,10.0,NW,15.0,-,N/A,,Overcast,310,2012-10-23 09:35:00
2:55 AM,42.8,41.0,93,29.99,7.0,WNW,15.0,-,N/A,,Overcast,300,2012-10-23 09:55:00
3:15 AM,41.0,41.0,100,29.98,8.0,NW,16.1,-,N/A,,Overcast,320,2012-10-23 10:15:00
3:35 AM,41.0,39.2,93,29.98,10.0,WNW,12.7,-,N/A,,Overcast,300,2012-10-23 10:35:00
3:55 AM,41.0,39.2,93,29.97,10.0,NW,12.7,-,N/A,,Mostly Cloudy,310,2012-10-23 10:55:00
4:35 AM,39.2,37.4,93,29.97,10.0,NW,16.1,-,N/A,,Mostly Cloudy,310,2012-10-23 11:35:00
5:15 AM,37.4,37.4,100,29.99,10.0,WNW,16.1,24.2,N/A,,Scattered Clouds,300,2012-10-23 12:15:00
5:35 AM,37.4,35.6,93,29.99,10.0,WNW,15.0,-,N/A,,Partly Cloudy,300,2012-10-23 12:35:00
5:55 AM,37.4,35.6,93,29.99,10.0,WNW,13.8,-,N/A,,Clear,300,2012-10-23 12:55:00
6:15 AM,37.4,37.4,100,29.99,7.0,WNW,13.8,-,N/A,,Partly Cloudy,300,2012-10-23 13:15:00
6:35 AM,37.4,37.4,100,29.99,7.0,WNW,12.7,-,N/A,,Clear,300,2012-10-23 13:35:00
6:55 AM,37.4,37.4,100,29.99,5.0,WNW,12.7,-,N/A,,Scattered Clouds,300,2012-10-23 13:55:00
7:15 AM,37.4,37.4,100,29.99,3.0,WNW,13.8,-,N/A,,Mostly Cloudy,290,2012-10-23 14:15:00
7:35 AM,37.4,37.4,100,29.99,8.0,WNW,12.7,-,N/A,,Clear,290,2012-10-23 14:35:00
8:15 AM,39.2,37.4,93,30.01,7.0,NW,13.8,-,N/A,,Clear,310,2012-10-23 15:15:00
8:55 AM,41.0,37.4,87,30.02,10.0,West,15.0,-,N/A,,Partly Cloudy,280,2012-10-23 15:55:00
9:15 AM,41.0,37.4,87,30.02,10.0,WNW,13.8,-,N/A,,Partly Cloudy,300,2012-10-23 16:15:00
9:35 AM,44.6,37.4,76,30.02,10.0,NW,15.0,18.4,N/A,,Mostly Cloudy,310,2012-10-23 16:35:00
9:55 AM,44.6,35.6,71,30.02,10.0,NW,18.4,24.2,N/A,,Partly Cloudy,310,2012-10-23 16:55:00
10:15 AM,46.4,33.8,62,30.02,10.0,NW,18.4,-,N/A,,Clear,320,2012-10-23 17:15:00
10:35 AM,48.2,35.6,62,30.02,10.0,NW,16.1,25.3,N/A,,Clear,310,2012-10-23 17:35:00
10:55 AM,48.2,33.8,58,30.02,9.0,NW,19.6,25.3,N/A,,Clear,320,2012-10-23 17:55:00
11:15 AM,48.2,33.8,58,30.02,9.0,NW,19.6,25.3,N/A,,Clear,310,2012-10-23 18:15:00
11:35 AM,50.0,32.0,50,30.01,10.0,NW,19.6,26.5,N/A,,Clear,320,2012-10-23 18:35:00
11:55 AM,50.0,32.0,50,30.01,9.0,NW,20.7,28.8,N/A,,Clear,310,2012-10-23 18:55:00
12:15 PM,50.0,32.0,50,30.01,10.0,NW,23.0,29.9,N/A,,Clear,320,2012-10-23 19:15:00
12:35 PM,50.0,32.0,50,30.00,10.0,NW,24.2,29.9,N/A,,Clear,320,2012-10-23 19:35:00
12:55 PM,50.0,32.0,50,30.00,10.0,NW,20.7,28.8,N/A,,Clear,320,2012-10-23 19:55:00
1:15 PM,50.0,32.0,50,29.99,9.0,NW,21.9,26.5,N/A,,Clear,320,2012-10-23 20:15:00
1:35 PM,50.0,32.0,50,29.98,10.0,NW,18.4,26.5,N/A,,Clear,320,2012-10-23 20:35:00
1:55 PM,51.8,32.0,47,29.98,10.0,NW,21.9,26.5,N/A,,Clear,310,2012-10-23 20:55:00
2:15 PM,51.8,32.0,47,29.97,10.0,NW,18.4,26.5,N/A,,Clear,320,2012-10-23 21:15:00
2:35 PM,51.8,32.0,47,29.97,10.0,NW,21.9,28.8,N/A,,Clear,310,2012-10-23 21:35:00
2:55 PM,51.8,32.0,47,29.97,10.0,NW,18.4,28.8,N/A,,Clear,310,2012-10-23 21:55:00
3:15 PM,51.8,32.0,47,29.97,10.0,NW,19.6,25.3,N/A,,Clear,320,2012-10-23 22:15:00
3:35 PM,51.8,32.0,47,29.97,10.0,NW,19.6,27.6,N/A,,Clear,310,2012-10-23 22:35:00
3:55 PM,50.0,32.0,50,29.97,10.0,NW,18.4,26.5,N/A,,Clear,310,2012-10-23 22:55:00
4:15 PM,50.0,32.0,50,29.97,10.0,NW,20.7,27.6,N/A,,Clear,320,2012-10-23 23:15:00
4:35 PM,50.0,32.0,50,29.96,10.0,NW,21.9,28.8,N/A,,Partly Cloudy,320,2012-10-23 23:35:00
4:55 PM,50.0,32.0,50,29.97,10.0,NW,17.3,27.6,N/A,,Partly Cloudy,310,2012-10-23 23:55:00
5:15 PM,48.2,32.0,54,29.97,10.0,NW,19.6,27.6,N/A,,Scattered Clouds,310,2012-10-24 00:15:00
5:35 PM,48.2,32.0,54,29.97,10.0,NW,16.1,24.2,N/A,,Partly Cloudy,310,2012-10-24 00:35:00
5:55 PM,46.4,32.0,57,29.97,10.0,WNW,13.8,17.3,N/A,,Partly Cloudy,300,2012-10-24 00:55:00
6:15 PM,46.4,32.0,57,29.97,10.0,NW,15.0,-,N/A,,Clear,310,2012-10-24 01:15:00
6:35 PM,46.4,32.0,57,29.97,10.0,WNW,11.5,-,N/A,,Clear,300,2012-10-24 01:35:00
6:55 PM,44.6,32.0,61,29.97,10.0,WNW,11.5,-,N/A,,Clear,300,2012-10-24 01:55:00
7:15 PM,44.6,32.0,61,29.98,10.0,WNW,11.5,-,N/A,,Clear,290,2012-10-24 02:15:00
7:35 PM,44.6,32.0,61,29.98,10.0,WNW,11.5,17.3,N/A,,Clear,290,2012-10-24 02:35:00
7:55 PM,44.6,32.0,61,29.98,10.0,WNW,12.7,-,N/A,,Clear,290,2012-10-24 02:55:00
8:15 PM,42.8,32.0,66,29.98,10.0,WNW,11.5,-,N/A,,Clear,290,2012-10-24 03:15:00
8:35 PM,42.8,32.0,66,29.98,10.0,West,11.5,-,N/A,,Clear,280,2012-10-24 03:35:00
9:15 PM,42.8,32.0,66,29.98,10.0,WNW,16.1,-,N/A,,Clear,300,2012-10-24 04:15:00
9:35 PM,44.6,33.8,66,29.98,10.0,WNW,13.8,-,N/A,,Clear,290,2012-10-24 04:35:00
9:55 PM,41.0,32.0,70,29.99,10.0,WNW,13.8,-,N/A,,Clear,290,2012-10-24 04:55:00
10:15 PM,42.8,35.6,76,29.99,10.0,WNW,16.1,-,N/A,,Clear,300,2012-10-24 05:15:00
10:35 PM,42.8,35.6,76,29.99,10.0,WNW,13.8,21.9,N/A,,Clear,300,2012-10-24 05:35:00
11:15 PM,42.8,35.6,76,29.99,10.0,NW,15.0,-,N/A,,Mostly Cloudy,310,2012-10-24 06:15:00
11:35 PM,42.8,35.6,76,29.99,10.0,NW,16.1,-,N/A,,Overcast,310,2012-10-24 06:35:00
11:55 PM,44.6,35.6,71,30.00,10.0,NW,16.1,21.9,N/A,,Overcast,310,2012-10-24 06:55:00